HS5AM-10 Weather Reports


Display with metric or nautical units.
time (UTC)temp
F
wind
direction
speed
MPH
gust
MPH
rain 1hr
in
rain 24hr
in
rain mn
in
humidity
%
barometer
mb
20260504081306 108 0 0.0 0.0 0.00 0.00 0.00 27 979.0
20260504080242 108 0 0.0 0.0 0.00 0.00 0.00 27 979.0
20260504050555 99 0 0.0 0.0 0.00 0.00 0.00 37 983.0
20260504045531 98 0 0.0 0.0 0.00 0.00 0.00 39 983.0
20260504044507 98 0 0.0 0.0 0.00 0.00 0.00 41 983.0
20260504043443 97 0 0.0 0.0 0.00 0.00 0.00 42 983.0
20260504042420 97 0 0.0 0.0 0.00 0.00 0.00 42 983.0
20260504041356 96 0 0.0 0.0 0.00 0.00 0.00 44 983.0
20260504040332 95 0 0.0 0.0 0.00 0.00 0.00 44 983.0
20260504035308 95 0 0.0 0.0 0.00 0.00 0.00 45 983.0
20260504034244 94 0 0.0 0.0 0.00 0.00 0.00 46 983.0
20260504033220 94 0 0.0 0.0 0.00 0.00 0.00 47 984.0
20260504032156 93 0 0.0 0.0 0.00 0.00 0.00 47 984.0
20260504031132 93 0 0.0 0.0 0.00 0.00 0.00 48 984.0
20260504030108 92 0 0.0 0.0 0.00 0.00 0.00 48 984.0
20260504025044 92 0 0.0 0.0 0.00 0.00 0.00 48 984.0
20260504024020 91 0 0.0 0.0 0.00 0.00 0.00 50 984.0
20260504022957 91 0 0.0 0.0 0.00 0.00 0.00 51 984.0
20260504021932 90 0 0.0 0.0 0.00 0.00 0.00 53 984.0
20260504020908 90 0 0.0 0.0 0.00 0.00 0.00 53 984.0
20260504015845 89 0 0.0 0.0 0.00 0.00 0.00 54 984.0
20260504014821 89 0 0.0 0.0 0.00 0.00 0.00 55 984.0
20260504013757 89 0 0.0 0.0 0.00 0.00 0.00 55 984.0
20260504012733 88 0 0.0 0.0 0.00 0.00 0.00 56 984.0
20260504011709 88 0 0.0 0.0 0.00 0.00 0.00 57 984.0
20260504010645 88 0 0.0 0.0 0.00 0.00 0.00 58 984.0
20260504005621 88 0 0.0 0.0 0.00 0.00 0.00 59 984.0
20260504004557 87 0 0.0 0.0 0.00 0.00 0.00 58 984.0
20260504003533 88 0 0.0 0.0 0.00 0.00 0.00 58 983.0
20260504002509 88 0 0.0 0.0 0.00 0.00 0.00 58 983.0
20260504001445 88 0 0.0 0.0 0.00 0.00 0.00 57 983.0
20260504000420 89 0 0.0 0.0 0.00 0.00 0.00 55 983.0
20260503235356 89 0 0.0 0.0 0.00 0.00 0.00 55 983.0
20260503234332 89 0 0.0 0.0 0.00 0.00 0.00 55 983.0
20260503233308 89 0 0.0 0.0 0.00 0.00 0.00 55 983.0
20260503232244 89 0 0.0 0.0 0.00 0.00 0.00 55 983.0
20260503231220 89 0 0.0 0.0 0.00 0.00 0.00 55 982.0
20260503230156 89 0 0.0 0.0 0.00 0.00 0.00 55 982.0
20260503225132 89 0 0.0 0.0 0.00 0.00 0.00 54 982.0
20260503224108 89 0 0.0 0.0 0.00 0.00 0.00 54 982.0
20260503223044 89 0 0.0 0.0 0.00 0.00 0.00 54 982.0
20260503222020 89 0 0.0 0.0 0.00 0.00 0.00 54 982.0
20260503220955 90 0 0.0 0.0 0.00 0.00 0.00 54 982.0
20260503215931 90 0 0.0 0.0 0.00 0.00 0.00 53 982.0
20260503214907 90 0 0.0 0.0 0.00 0.00 0.00 53 982.0
20260503213842 90 0 0.0 0.0 0.00 0.00 0.00 53 982.0
20260503212817 90 0 0.0 0.0 0.00 0.00 0.00 52 981.0
20260503211753 90 0 0.0 0.0 0.00 0.00 0.00 52 981.0
20260503210728 90 0 0.0 0.0 0.00 0.00 0.00 52 981.0
20260503205704 90 0 0.0 0.0 0.00 0.00 0.00 52 981.0
20260503204639 91 0 0.0 0.0 0.00 0.00 0.00 52 981.0
20260503203615 91 0 0.0 0.0 0.00 0.00 0.00 51 981.0
20260503202551 91 0 0.0 0.0 0.00 0.00 0.00 51 981.0
20260503201527 91 0 0.0 0.0 0.00 0.00 0.00 51 981.0
20260503200503 91 0 0.0 0.0 0.00 0.00 0.00 51 981.0
20260503195438 91 0 0.0 0.0 0.00 0.00 0.00 51 981.0
20260503194414 91 0 0.0 0.0 0.00 0.00 0.00 50 981.0
20260503193350 91 0 0.0 0.0 0.00 0.00 0.00 50 981.0
20260503192325 92 0 0.0 0.0 0.00 0.00 0.00 50 981.0
20260503191301 92 0 0.0 0.0 0.00 0.00 0.00 50 981.0
20260503190237 92 0 0.0 0.0 0.00 0.00 0.00 50 981.0
20260503185213 92 0 0.0 0.0 0.00 0.00 0.00 49 981.0
20260503184148 92 0 0.0 0.0 0.00 0.00 0.00 49 981.0
20260503183124 92 0 0.0 0.0 0.00 0.00 0.00 49 982.0
20260503182100 93 0 0.0 0.0 0.00 0.00 0.00 49 982.0
20260503181035 93 0 0.0 0.0 0.00 0.00 0.00 48 982.0
20260503180011 93 0 0.0 0.0 0.00 0.00 0.00 48 982.0
20260503174947 93 0 0.0 0.0 0.00 0.00 0.00 48 982.0
20260503173923 93 0 0.0 0.0 0.00 0.00 0.00 48 982.0
20260503172858 93 0 0.0 0.0 0.00 0.00 0.00 48 982.0
20260503171834 94 0 0.0 0.0 0.00 0.00 0.00 48 982.0
20260503170809 94 0 0.0 0.0 0.00 0.00 0.00 47 982.0
20260503150319 95 0 0.0 0.0 0.00 0.00 0.00 45 981.0
20260503130854 99 0 0.0 0.0 0.00 0.00 0.00 38 979.0
20260503110407 105 0 0.0 0.0 0.00 0.00 0.00 29 977.0
20260503100143 107 0 0.0 0.0 0.00 0.00 0.00 26 977.0